Regional Weather Roundup
Issued by NWS

Home | Current Version | Previous Version | Text Only | Print | Product List | Glossary Off
Versions: 1 2 3 4 5 6 7 8 9 10 11 12 13 14 15 16 17 18 19 20 21 22 23 24 25 26 27 28 29 30 31 32 33 34 35 36 37 38 39 40 41 42 43 44 45 46 47 48 49 50

000
ASUS43 KOAX 311602
RWRNE

WEATHER ROUNDUP FOR NEBRASKA
NATIONAL WEATHER SERVICE OMAHA NE
1100 AM CDT FRI JUL 31 2015

NOTES: SATELLITE DATA IS BEING USED TO AUGMENT CLOUD COVER ABOVE
       12000 FEET.
       "FAIR" INDICATES FEW OR NO CLOUDS BELOW 12,000 FEET WITH NO
       SIGNIFICANT WEATHER AND/OR OBSTRUCTIONS TO VISIBILITY.

  * THESE STATIONS DO NOT REPORT WEATHER SUCH AS RAIN...SNOW OR FOG.

NEZ001>004-019>022-054>056-311700-
NEBRASKA PANHANDLE

CITY           SKY/WX    TMP DP  RH WIND       PRES   REMARKS
SCOTTSBLUFF    SUNNY     76  61  59 E8        30.27F
ALLIANCE       SUNNY     79  61  53 VRB7      30.27S
CHADRON        SUNNY     78  57  48 CALM      30.22F
KIMBALL        SUNNY     78  60  52 SE8       30.31S
SIDNEY         SUNNY     78  59  51 VRB3      30.31S
$$

NEZ057>060-069>072-079>082-311700-
SOUTHWEST NEBRASKA

CITY           SKY/WX    TMP DP  RH WIND       PRES   REMARKS
NORTH PLATTE   SUNNY     83  66  56 VRB5      30.21F
IMPERIAL       SUNNY     80  61  52 VRB3      30.25S
MCCOOK         SUNNY     84  68  58 SW8       30.21F
$$

NEZ005>010-023>029-035>040-094-311700-
NORTH CENTRAL NEBRASKA

CITY           SKY/WX    TMP DP  RH WIND       PRES   REMARKS
AINSWORTH      SUNNY     82  65  55 E5        30.19F
BROKEN BOW     SUNNY     85  69  58 W6        30.20S
O`NEILL        SUNNY     82  67  60 NE3       30.17F
ORD            SUNNY     85  67  54 W9        30.16F
$$

NEZ041-046>049-061>064-073>077-083>087-311700-
SOUTH CENTRAL NEBRASKA

CITY           SKY/WX    TMP DP  RH WIND       PRES   REMARKS
GRAND ISLAND   SUNNY     85  70  60 W10       30.19S
AURORA         SUNNY     83  74  75 W9        30.18S HX  90
HASTINGS       SUNNY     83  72  69 VRB6      30.19F
KEARNEY *      SUNNY     82  68  61 SW8       30.19F
$$

NEZ011>018-030>034-042>045-311700-
NORTHEAST NEBRASKA

CITY           SKY/WX    TMP DP  RH WIND       PRES   REMARKS
NORFOLK        SUNNY     83  68  60 N3        30.14F
ALBION         SUNNY     86  67  53 NW3       30.15F
BLAIR          SUNNY     81  70  71 SW9       30.15S
COLUMBUS *     SUNNY     84  70  61 W6        30.15S
FREMONT        SUNNY     83  71  64 W6        30.14S
TEKAMAH        SUNNY     81  70  69 CALM      30.13F
$$

NEZ050>053-065>068-078-088>093-311700-
SOUTHEAST NEBRASKA

CITY           SKY/WX    TMP DP  RH WIND       PRES   REMARKS
LINCOLN        SUNNY     84  71  65 W8        30.16F
OMAHA EPPLEY   MOSUNNY   86  71  60 W9        30.13S HX  91
BEATRICE       SUNNY     81  71  72 W3        30.17S
FALLS CITY     SUNNY     83  71  67 W8        30.14F
NEBRASKA CITY  SUNNY     82  68  63 W10       30.15S
$$

NEZ044-045-051>053-067-311700-
OMAHA AREA

CITY           SKY/WX    TMP DP  RH WIND       PRES   REMARKS
OMAHA EPPLEY   MOSUNNY   86  71  60 W9        30.13S HX  91
BLAIR          SUNNY     81  70  71 SW9       30.15S
FREMONT        SUNNY     83  71  64 W6        30.14S
OFFUTT AFB     SUNNY     84  72  67 SW8       30.13S
WAHOO          FAIR      83  73  70 W7        30.14F
$$


USA.gov is the U.S. government's official web portal to all federal, state and local government web resources and services.